Time,TemperatureF,DewpointF,PressureIn,WindDirection,WindDirectionDegrees,WindSpeedMPH,WindSpeedGustMPH,Humidity,HourlyPrecipIn,Conditions,Clouds,dailyrainin,SoftwareType,DateUTC
2013-07-10 00:01:00,67.9,64.4,29.83,North,0,0.0,0.0,89,0.00,,,0.00,WUHU216HW,2013-07-10 04:01:00,
2013-07-10 00:02:00,67.9,64.4,29.83,North,0,0.0,0.0,89,0.00,,,0.00,WUHU216HW,2013-07-10 04:02:00,
2013-07-10 00:07:00,68.0,64.6,29.83,North,0,0.0,0.0,89,0.00,,,0.00,WUHU216HW,2013-07-10 04:07:00,
2013-07-10 00:12:00,68.0,64.6,29.83,North,0,0.0,0.0,89,0.00,,,0.00,WUHU216HW,2013-07-10 04:12:00,
2013-07-10 00:17:00,68.0,64.6,29.83,North,0,0.0,0.0,89,0.00,,,0.00,WUHU216HW,2013-07-10 04:17:00,
2013-07-10 00:23:00,68.0,64.6,29.83,North,0,0.0,0.0,89,0.00,,,0.00,WUHU216HW,2013-07-10 04:23:00,
2013-07-10 00:28:00,67.9,64.4,29.83,North,0,0.0,0.0,89,0.00,,,0.00,WUHU216HW,2013-07-10 04:28:00,
2013-07-10 00:33:00,67.9,64.4,29.82,North,0,0.0,0.0,89,0.00,,,0.00,WUHU216HW,2013-07-10 04:33:00,
2013-07-10 00:38:00,67.7,64.3,29.82,North,0,0.0,0.0,89,0.00,,,0.00,WUHU216HW,2013-07-10 04:38:00,
2013-07-10 00:43:00,67.7,64.3,29.82,North,0,0.0,0.0,89,0.00,,,0.00,WUHU216HW,2013-07-10 04:43:00,
2013-07-10 00:48:00,67.7,64.3,29.82,North,0,0.0,0.0,89,0.00,,,0.00,WUHU216HW,2013-07-10 04:48:00,
2013-07-10 00:53:00,67.7,64.3,29.82,North,0,0.0,0.0,89,0.00,,,0.00,WUHU216HW,2013-07-10 04:53:00,
2013-07-10 00:58:00,67.7,64.3,29.82,North,0,0.0,0.0,89,0.00,,,0.00,WUHU216HW,2013-07-10 04:58:00,
2013-07-10 01:03:00,67.7,64.3,29.82,North,0,0.0,0.0,89,0.00,,,0.00,WUHU216HW,2013-07-10 05:03:00,
2013-07-10 01:08:00,67.7,64.3,29.82,North,0,0.0,0.0,89,0.00,,,0.00,WUHU216HW,2013-07-10 05:08:00,
2013-07-10 01:13:00,67.7,64.3,29.82,North,0,0.0,0.0,89,0.00,,,0.00,WUHU216HW,2013-07-10 05:13:00,
2013-07-10 01:18:00,67.7,64.3,29.81,North,0,0.0,0.0,89,0.00,,,0.00,WUHU216HW,2013-07-10 05:18:00,
2013-07-10 01:23:00,67.5,64.1,29.81,North,0,0.0,0.0,89,0.00,,,0.00,WUHU216HW,2013-07-10 05:23:00,
2013-07-10 01:28:00,67.3,63.9,29.81,North,0,0.0,0.0,89,0.00,,,0.00,WUHU216HW,2013-07-10 05:28:00,
2013-07-10 01:33:00,67.3,63.9,29.81,North,0,0.0,0.0,89,0.00,,,0.00,WUHU216HW,2013-07-10 05:33:00,
2013-07-10 01:38:00,67.3,63.9,29.81,North,0,0.0,0.0,89,0.00,,,0.00,WUHU216HW,2013-07-10 05:38:00,
2013-07-10 01:43:00,67.1,63.7,29.80,North,0,0.0,0.0,89,0.00,,,0.00,WUHU216HW,2013-07-10 05:43:00,
2013-07-10 01:48:00,67.1,63.7,29.80,North,0,0.0,0.0,89,0.00,,,0.00,WUHU216HW,2013-07-10 05:48:00,
2013-07-10 01:53:00,67.0,63.5,29.80,North,0,0.0,0.0,89,0.00,,,0.00,WUHU216HW,2013-07-10 05:53:00,
2013-07-10 01:58:00,67.0,63.5,29.80,North,0,0.0,0.0,89,0.00,,,0.00,WUHU216HW,2013-07-10 05:58:00,
2013-07-10 02:03:00,67.0,63.5,29.80,North,0,0.0,0.0,89,0.00,,,0.00,WUHU216HW,2013-07-10 06:03:00,
2013-07-10 02:08:00,67.0,63.5,29.79,North,0,0.0,0.0,89,0.00,,,0.00,WUHU216HW,2013-07-10 06:08:00,
2013-07-10 02:13:00,67.0,63.9,29.80,North,0,0.0,0.0,90,0.00,,,0.00,WUHU216HW,2013-07-10 06:13:00,
2013-07-10 02:18:00,67.0,63.9,29.79,North,0,0.0,0.0,90,0.00,,,0.00,WUHU216HW,2013-07-10 06:18:00,
2013-07-10 02:23:00,67.0,63.9,29.80,North,0,0.0,0.0,90,0.00,,,0.00,WUHU216HW,2013-07-10 06:23:00,
2013-07-10 02:28:00,67.0,63.9,29.79,North,0,0.0,0.0,90,0.00,,,0.00,WUHU216HW,2013-07-10 06:28:00,
2013-07-10 02:33:00,67.0,63.9,29.79,North,0,0.0,0.0,90,0.00,,,0.00,WUHU216HW,2013-07-10 06:33:00,
2013-07-10 02:38:00,67.0,63.9,29.79,North,0,0.0,0.0,90,0.00,,,0.00,WUHU216HW,2013-07-10 06:38:00,
2013-07-10 03:00:00,67.0,63.9,29.78,North,0,0.0,0.0,90,0.00,,,0.00,WUHU216HW,2013-07-10 07:00:00,
2013-07-10 03:05:00,67.0,63.9,29.78,North,0,0.0,0.0,90,0.00,,,0.00,WUHU216HW,2013-07-10 07:05:00,
2013-07-10 03:10:00,67.0,63.9,29.78,North,0,0.0,0.0,90,0.00,,,0.00,WUHU216HW,2013-07-10 07:10:00,
2013-07-10 03:15:00,66.8,63.7,29.78,North,0,0.0,0.0,90,0.00,,,0.00,WUHU216HW,2013-07-10 07:15:00,
2013-07-10 03:20:00,67.0,63.9,29.78,North,0,0.0,0.0,90,0.00,,,0.00,WUHU216HW,2013-07-10 07:20:00,
2013-07-10 03:25:00,67.0,63.9,29.78,North,0,0.0,0.0,90,0.00,,,0.00,WUHU216HW,2013-07-10 07:25:00,
2013-07-10 03:30:00,67.0,63.9,29.78,North,0,0.0,0.0,90,0.00,,,0.00,WUHU216HW,2013-07-10 07:30:00,
2013-07-10 03:35:00,67.0,63.9,29.78,North,0,0.0,0.0,90,0.00,,,0.00,WUHU216HW,2013-07-10 07:35:00,
2013-07-10 03:40:00,67.0,63.9,29.78,North,0,0.0,0.0,90,0.00,,,0.00,WUHU216HW,2013-07-10 07:40:00,
2013-07-10 04:00:00,66.6,63.5,29.77,North,0,0.0,0.0,90,0.00,,,0.00,WUHU216HW,2013-07-10 08:00:00,
2013-07-10 04:05:00,66.6,63.5,29.77,North,0,0.0,0.0,90,0.00,,,0.00,WUHU216HW,2013-07-10 08:05:00,
2013-07-10 04:10:00,66.6,63.5,29.76,North,0,0.0,0.0,90,0.00,,,0.00,WUHU216HW,2013-07-10 08:10:00,
2013-07-10 04:15:00,66.6,63.5,29.76,North,0,0.0,0.0,90,0.00,,,0.00,WUHU216HW,2013-07-10 08:15:00,
2013-07-10 04:20:00,66.6,63.5,29.76,North,0,0.0,0.0,90,0.00,,,0.00,WUHU216HW,2013-07-10 08:20:00,
2013-07-10 04:25:00,66.6,63.5,29.76,North,0,0.0,0.0,90,0.00,,,0.00,WUHU216HW,2013-07-10 08:25:00,
2013-07-10 04:30:00,66.6,63.5,29.76,North,0,0.0,0.0,90,0.00,,,0.00,WUHU216HW,2013-07-10 08:30:00,
2013-07-10 04:35:00,66.6,63.5,29.77,North,0,0.0,0.0,90,0.00,,,0.00,WUHU216HW,2013-07-10 08:35:00,
2013-07-10 04:40:00,66.6,63.5,29.77,North,0,0.0,0.0,90,0.00,,,0.00,WUHU216HW,2013-07-10 08:40:00,
2013-07-10 04:45:00,66.6,63.5,29.77,North,0,0.0,0.0,90,0.00,,,0.00,WUHU216HW,2013-07-10 08:45:00,
2013-07-10 04:50:00,66.6,63.5,29.77,North,0,0.0,0.0,90,0.00,,,0.00,WUHU216HW,2013-07-10 08:50:00,
2013-07-10 04:55:00,66.6,63.5,29.77,North,0,0.0,0.0,90,0.00,,,0.00,WUHU216HW,2013-07-10 08:55:00,
2013-07-10 05:00:00,66.6,63.5,29.77,North,0,0.0,0.0,90,0.00,,,0.00,WUHU216HW,2013-07-10 09:00:00,
2013-07-10 05:05:00,66.6,63.5,29.77,North,0,0.0,0.0,90,0.00,,,0.00,WUHU216HW,2013-07-10 09:05:00,
2013-07-10 05:10:00,66.6,63.5,29.77,North,0,0.0,0.0,90,0.00,,,0.00,WUHU216HW,2013-07-10 09:10:00,
2013-07-10 05:15:00,66.6,63.5,29.77,North,0,0.0,0.0,90,0.00,,,0.00,WUHU216HW,2013-07-10 09:15:00,
2013-07-10 05:20:00,66.6,63.5,29.77,North,0,0.0,0.0,90,0.00,,,0.00,WUHU216HW,2013-07-10 09:20:00,
2013-07-10 05:25:00,66.6,63.5,29.77,North,0,0.0,0.0,90,0.00,,,0.00,WUHU216HW,2013-07-10 09:25:00,
2013-07-10 05:30:00,66.6,63.5,29.76,North,0,0.0,0.0,90,0.00,,,0.00,WUHU216HW,2013-07-10 09:30:00,
2013-07-10 05:35:00,66.6,63.5,29.76,North,0,0.0,0.0,90,0.00,,,0.00,WUHU216HW,2013-07-10 09:35:00,
2013-07-10 05:40:00,66.6,63.5,29.76,North,0,0.0,0.0,90,0.00,,,0.00,WUHU216HW,2013-07-10 09:40:00,
2013-07-10 05:46:00,66.6,63.5,29.77,North,0,0.0,0.0,90,0.00,,,0.00,WUHU216HW,2013-07-10 09:46:00,
2013-07-10 05:51:00,66.6,63.5,29.77,North,0,0.0,0.0,90,0.00,,,0.00,WUHU216HW,2013-07-10 09:51:00,
2013-07-10 05:56:00,66.6,63.5,29.76,North,0,0.0,0.0,90,0.00,,,0.00,WUHU216HW,2013-07-10 09:56:00,
2013-07-10 06:01:00,66.6,63.5,29.76,North,0,0.0,0.0,90,0.00,,,0.00,WUHU216HW,2013-07-10 10:01:00,
2013-07-10 06:06:00,66.6,63.5,29.76,North,0,0.0,0.0,90,0.00,,,0.00,WUHU216HW,2013-07-10 10:06:00,
2013-07-10 06:11:00,66.6,63.5,29.76,North,0,0.0,0.0,90,0.00,,,0.00,WUHU216HW,2013-07-10 10:11:00,
2013-07-10 06:16:00,66.6,63.5,29.76,North,0,0.0,0.0,90,0.00,,,0.00,WUHU216HW,2013-07-10 10:16:00,
2013-07-10 06:21:00,66.6,63.5,29.76,North,0,0.0,0.0,90,0.00,,,0.00,WUHU216HW,2013-07-10 10:21:00,
2013-07-10 06:26:00,66.6,63.5,29.76,North,0,0.0,0.0,90,0.00,,,0.00,WUHU216HW,2013-07-10 10:26:00,
2013-07-10 06:31:00,66.6,63.5,29.76,North,0,0.0,0.0,90,0.00,,,0.00,WUHU216HW,2013-07-10 10:31:00,
2013-07-10 06:36:00,66.6,63.5,29.76,North,0,0.0,0.0,90,0.00,,,0.00,WUHU216HW,2013-07-10 10:36:00,
2013-07-10 06:41:00,66.6,63.5,29.76,North,0,0.0,0.0,90,0.00,,,0.00,WUHU216HW,2013-07-10 10:41:00,
2013-07-10 07:00:00,66.8,63.7,29.75,North,0,0.0,0.0,90,0.00,,,0.00,WUHU216HW,2013-07-10 11:00:00,
2013-07-10 07:05:00,66.8,63.7,29.75,North,0,0.0,0.0,90,0.00,,,0.00,WUHU216HW,2013-07-10 11:05:00,
2013-07-10 07:10:00,66.8,63.7,29.75,North,0,0.0,0.0,90,0.00,,,0.00,WUHU216HW,2013-07-10 11:10:00,
2013-07-10 07:15:00,67.0,63.9,29.75,North,0,0.0,0.0,90,0.00,,,0.00,WUHU216HW,2013-07-10 11:15:00,
2013-07-10 07:20:00,66.8,63.7,29.75,North,0,0.0,0.0,90,0.00,,,0.00,WUHU216HW,2013-07-10 11:20:00,
2013-07-10 07:25:00,67.0,63.9,29.75,North,0,0.0,0.0,90,0.00,,,0.00,WUHU216HW,2013-07-10 11:25:00,
2013-07-10 07:30:00,67.0,63.9,29.75,North,0,0.0,0.0,90,0.00,,,0.00,WUHU216HW,2013-07-10 11:30:00,
2013-07-10 07:35:00,67.0,63.9,29.74,North,0,0.0,0.0,90,0.00,,,0.00,WUHU216HW,2013-07-10 11:35:00,
2013-07-10 07:40:00,67.0,63.9,29.74,North,0,0.0,0.0,90,0.00,,,0.00,WUHU216HW,2013-07-10 11:40:00,
2013-07-10 07:45:00,67.0,63.9,29.75,North,0,0.0,0.0,90,0.00,,,0.00,WUHU216HW,2013-07-10 11:45:00,
2013-07-10 07:50:00,67.0,63.9,29.75,North,0,0.0,0.0,90,0.00,,,0.00,WUHU216HW,2013-07-10 11:50:00,
2013-07-10 07:55:00,67.1,64.1,29.75,North,0,0.0,0.0,90,0.00,,,0.00,WUHU216HW,2013-07-10 11:55:00,
2013-07-10 08:00:00,67.1,64.1,29.75,North,0,0.0,0.0,90,0.00,,,0.00,WUHU216HW,2013-07-10 12:00:00,
2013-07-10 08:05:00,67.1,64.1,29.75,North,0,0.0,0.0,90,0.00,,,0.00,WUHU216HW,2013-07-10 12:05:00,
2013-07-10 08:10:00,67.3,64.5,29.74,North,0,0.0,0.0,91,0.00,,,0.00,WUHU216HW,2013-07-10 12:10:00,
2013-07-10 08:15:00,67.3,64.5,29.74,North,0,0.0,0.0,91,0.00,,,0.00,WUHU216HW,2013-07-10 12:15:00,
2013-07-10 08:20:00,67.5,64.7,29.74,North,0,0.0,0.0,91,0.00,,,0.00,WUHU216HW,2013-07-10 12:20:00,
2013-07-10 08:25:00,67.5,64.7,29.74,North,0,0.0,0.0,91,0.00,,,0.00,WUHU216HW,2013-07-10 12:25:00,
2013-07-10 08:30:00,67.7,64.9,29.74,North,0,0.0,0.0,91,0.00,,,0.00,WUHU216HW,2013-07-10 12:30:00,
2013-07-10 08:35:00,67.9,64.8,29.75,North,0,0.0,0.0,90,0.00,,,0.00,WUHU216HW,2013-07-10 12:35:00,
2013-07-10 08:40:00,67.9,64.8,29.75,North,0,0.0,0.0,90,0.00,,,0.00,WUHU216HW,2013-07-10 12:40:00,
2013-07-10 08:45:00,68.0,65.0,29.74,North,0,0.0,0.0,90,0.00,,,0.00,WUHU216HW,2013-07-10 12:45:00,
2013-07-10 08:50:00,68.2,65.2,29.74,North,0,0.0,0.0,90,0.00,,,0.00,WUHU216HW,2013-07-10 12:50:00,
2013-07-10 08:55:00,68.4,65.3,29.74,North,0,0.0,0.0,90,0.00,,,0.00,WUHU216HW,2013-07-10 12:55:00,
2013-07-10 09:00:00,68.8,65.7,29.74,North,0,0.0,0.0,90,0.00,,,0.00,WUHU216HW,2013-07-10 13:00:00,
2013-07-10 09:05:00,68.9,65.9,29.74,North,0,0.0,0.0,90,0.00,,,0.00,WUHU216HW,2013-07-10 13:05:00,
2013-07-10 09:10:00,69.1,66.1,29.73,North,0,0.0,0.0,90,0.00,,,0.00,WUHU216HW,2013-07-10 13:10:00,
2013-07-10 09:15:00,69.3,66.2,29.74,North,0,0.0,0.0,90,0.00,,,0.00,WUHU216HW,2013-07-10 13:15:00,
2013-07-10 09:20:00,69.5,66.4,29.73,North,0,0.0,0.0,90,0.00,,,0.00,WUHU216HW,2013-07-10 13:20:00,
2013-07-10 09:25:00,69.7,66.2,29.73,North,0,0.0,0.0,89,0.00,,,0.00,WUHU216HW,2013-07-10 13:25:00,
2013-07-10 09:30:00,69.7,66.2,29.72,North,0,0.0,0.0,89,0.00,,,0.00,WUHU216HW,2013-07-10 13:30:00,
2013-07-10 09:35:00,69.7,66.2,29.73,North,0,0.0,0.0,89,0.00,,,0.00,WUHU216HW,2013-07-10 13:35:00,
2013-07-10 09:40:00,69.8,66.4,29.73,North,0,0.0,0.0,89,0.00,,,0.00,WUHU216HW,2013-07-10 13:40:00,
2013-07-10 09:45:00,70.0,66.2,29.73,North,0,0.0,0.0,88,0.00,,,0.00,WUHU216HW,2013-07-10 13:45:00,
2013-07-10 09:50:00,70.2,66.4,29.72,North,0,0.0,0.0,88,0.00,,,0.00,WUHU216HW,2013-07-10 13:50:00,
2013-07-10 09:55:00,70.2,66.4,29.73,North,0,0.0,0.0,88,0.00,,,0.00,WUHU216HW,2013-07-10 13:55:00,
2013-07-10 10:00:00,70.2,66.4,29.72,North,0,0.0,0.0,88,0.00,,,0.00,WUHU216HW,2013-07-10 14:00:00,
2013-07-10 10:05:00,70.2,66.4,29.73,North,0,0.0,0.0,88,0.00,,,0.00,WUHU216HW,2013-07-10 14:05:00,
2013-07-10 10:10:00,70.4,66.6,29.72,North,0,0.0,0.0,88,0.00,,,0.00,WUHU216HW,2013-07-10 14:10:00,
2013-07-10 10:15:00,70.6,66.8,29.72,North,0,0.0,0.0,88,0.00,,,0.00,WUHU216HW,2013-07-10 14:15:00,
2013-07-10 10:20:00,70.7,67.0,29.72,North,0,0.0,0.0,88,0.00,,,0.00,WUHU216HW,2013-07-10 14:20:00,
2013-07-10 10:25:00,70.7,67.0,29.72,North,0,0.0,0.0,88,0.00,,,0.00,WUHU216HW,2013-07-10 14:25:00,
2013-07-10 10:30:00,70.9,67.1,29.72,North,0,0.0,0.0,88,0.00,,,0.00,WUHU216HW,2013-07-10 14:30:00,
2013-07-10 10:35:00,70.9,67.1,29.72,North,0,0.0,0.0,88,0.00,,,0.00,WUHU216HW,2013-07-10 14:35:00,
2013-07-10 10:40:00,70.9,67.1,29.72,North,0,0.0,0.0,88,0.00,,,0.00,WUHU216HW,2013-07-10 14:40:00,
2013-07-10 11:00:00,73.1,68.7,29.72,North,0,0.0,0.0,86,0.00,,,0.00,WUHU216HW,2013-07-10 15:00:00,
2013-07-10 11:05:00,73.3,69.2,29.72,North,0,0.0,0.0,87,0.00,,,0.00,WUHU216HW,2013-07-10 15:05:00,
2013-07-10 11:10:00,73.6,69.2,29.71,North,0,0.0,0.0,86,0.00,,,0.00,WUHU216HW,2013-07-10 15:10:00,
2013-07-10 11:15:00,74.2,69.8,29.71,North,0,0.0,0.0,86,0.00,,,0.00,WUHU216HW,2013-07-10 15:15:00,
2013-07-10 11:20:00,74.2,69.4,29.71,North,0,0.0,0.0,85,0.00,,,0.00,WUHU216HW,2013-07-10 15:20:00,
2013-07-10 11:25:00,74.5,69.8,29.71,North,0,0.0,0.0,85,0.00,,,0.00,WUHU216HW,2013-07-10 15:25:00,
2013-07-10 11:30:00,74.7,69.9,29.71,North,0,0.0,0.0,85,0.00,,,0.00,WUHU216HW,2013-07-10 15:30:00,
2013-07-10 11:35:00,74.9,70.1,29.71,North,0,0.0,0.0,85,0.00,,,0.00,WUHU216HW,2013-07-10 15:35:00,
2013-07-10 11:40:00,75.2,70.5,29.70,North,0,0.0,0.0,85,0.00,,,0.00,WUHU216HW,2013-07-10 15:40:00,
2013-07-10 11:45:00,75.6,70.8,29.70,North,0,0.0,0.0,85,0.00,,,0.00,WUHU216HW,2013-07-10 15:45:00,
2013-07-10 11:50:00,76.1,71.0,29.70,North,0,0.0,0.0,84,0.00,,,0.00,WUHU216HW,2013-07-10 15:50:00,
2013-07-10 11:55:00,76.7,71.1,29.69,North,0,0.0,0.0,83,0.00,,,0.00,WUHU216HW,2013-07-10 15:55:00,
2013-07-10 12:00:00,77.2,71.3,29.69,North,0,0.0,0.0,82,0.00,,,0.00,WUHU216HW,2013-07-10 16:00:00,
2013-07-10 12:05:00,77.6,71.6,29.69,North,0,0.0,0.0,82,0.00,,,0.00,WUHU216HW,2013-07-10 16:05:00,
2013-07-10 12:10:00,78.1,71.8,29.69,North,0,0.0,0.0,81,0.00,,,0.00,WUHU216HW,2013-07-10 16:10:00,
2013-07-10 12:15:00,78.8,71.4,29.68,North,0,0.0,0.0,78,0.00,,,0.00,WUHU216HW,2013-07-10 16:15:00,
2013-07-10 12:20:00,79.2,71.7,29.69,North,0,0.0,0.0,78,0.00,,,0.00,WUHU216HW,2013-07-10 16:20:00,
2013-07-10 12:25:00,78.5,70.3,29.69,North,0,0.0,0.0,76,0.00,,,0.00,WUHU216HW,2013-07-10 16:25:00,
2013-07-10 12:30:00,79.0,71.6,29.68,North,0,0.0,0.0,78,0.00,,,0.00,WUHU216HW,2013-07-10 16:30:00,
2013-07-10 12:35:00,79.4,71.9,29.68,North,0,0.0,0.0,78,0.00,,,0.00,WUHU216HW,2013-07-10 16:35:00,
2013-07-10 12:40:00,79.4,71.9,29.68,North,0,0.0,0.0,78,0.00,,,0.00,WUHU216HW,2013-07-10 16:40:00,
2013-07-10 12:45:00,79.6,71.7,29.67,North,0,0.0,0.0,77,0.00,,,0.00,WUHU216HW,2013-07-10 16:45:00,
2013-07-10 12:50:00,79.9,71.6,29.67,North,0,0.0,0.0,76,0.00,,,0.00,WUHU216HW,2013-07-10 16:50:00,
2013-07-10 12:55:00,79.9,71.6,29.67,North,0,0.0,0.0,76,0.00,,,0.00,WUHU216HW,2013-07-10 16:55:00,
2013-07-10 13:00:00,80.1,71.5,29.66,North,0,0.0,0.0,75,0.00,,,0.00,WUHU216HW,2013-07-10 17:00:00,
2013-07-10 13:05:00,80.3,71.6,29.66,North,0,0.0,0.0,75,0.00,,,0.00,WUHU216HW,2013-07-10 17:05:00,
2013-07-10 13:10:00,80.5,71.8,29.66,North,0,0.0,0.0,75,0.00,,,0.00,WUHU216HW,2013-07-10 17:10:00,
2013-07-10 13:15:00,80.8,72.2,29.66,North,0,0.0,0.0,75,0.00,,,0.00,WUHU216HW,2013-07-10 17:15:00,
2013-07-10 13:20:00,81.0,72.4,29.66,North,0,0.0,0.0,75,0.00,,,0.00,WUHU216HW,2013-07-10 17:20:00,
2013-07-10 13:25:00,81.2,72.6,29.65,North,0,0.0,0.0,75,0.00,,,0.00,WUHU216HW,2013-07-10 17:25:00,
2013-07-10 13:30:00,82.4,74.2,29.65,North,0,0.0,0.0,76,0.00,,,0.00,WUHU216HW,2013-07-10 17:30:00,
2013-07-10 13:35:00,82.4,73.3,29.64,North,0,0.0,0.0,74,0.00,,,0.00,WUHU216HW,2013-07-10 17:35:00,
2013-07-10 13:40:00,81.9,71.6,29.64,North,0,0.0,0.0,71,0.00,,,0.00,WUHU216HW,2013-07-10 17:40:00,
2013-07-10 13:45:00,81.4,70.7,29.63,North,0,0.0,0.0,70,0.00,,,0.00,WUHU216HW,2013-07-10 17:45:00,
2013-07-10 13:50:00,81.7,71.4,29.63,North,0,0.0,0.0,71,0.00,,,0.00,WUHU216HW,2013-07-10 17:50:00,
2013-07-10 13:55:00,81.7,71.4,29.63,North,0,0.0,0.0,71,0.00,,,0.00,WUHU216HW,2013-07-10 17:55:00,
2013-07-10 14:01:00,81.0,69.5,29.63,North,0,0.0,0.0,68,0.00,,,0.00,WUHU216HW,2013-07-10 18:01:00,
2013-07-10 14:06:00,81.2,70.0,29.62,North,0,0.0,0.0,69,0.00,,,0.00,WUHU216HW,2013-07-10 18:06:00,
2013-07-10 14:11:00,81.0,69.9,29.62,North,0,0.0,0.0,69,0.00,,,0.00,WUHU216HW,2013-07-10 18:11:00,
2013-07-10 14:16:00,80.5,69.4,29.62,North,0,0.0,0.0,69,0.00,,,0.00,WUHU216HW,2013-07-10 18:16:00,
2013-07-10 14:21:00,80.3,69.2,29.62,North,0,0.0,0.0,69,0.00,,,0.00,WUHU216HW,2013-07-10 18:21:00,
2013-07-10 14:26:00,80.1,69.0,29.61,North,0,0.0,0.0,69,0.00,,,0.00,WUHU216HW,2013-07-10 18:26:00,
2013-07-10 14:31:00,79.9,68.9,29.61,North,0,0.0,0.0,69,0.00,,,0.00,WUHU216HW,2013-07-10 18:31:00,
2013-07-10 14:36:00,80.3,69.7,29.61,North,0,0.0,0.0,70,0.00,,,0.00,WUHU216HW,2013-07-10 18:36:00,
2013-07-10 14:41:00,80.1,69.5,29.61,North,0,0.0,0.0,70,0.00,,,0.00,WUHU216HW,2013-07-10 18:41:00,
2013-07-10 14:46:00,80.3,70.0,29.61,North,0,0.0,0.0,71,0.00,,,0.00,WUHU216HW,2013-07-10 18:46:00,
2013-07-10 14:51:00,80.5,71.0,29.63,North,0,0.0,0.0,73,0.00,,,0.00,WUHU216HW,2013-07-10 18:51:00,
2013-07-10 14:56:00,79.7,71.9,29.62,North,0,0.0,0.0,77,0.26,,,0.27,WUHU216HW,2013-07-10 18:56:00,
2013-07-10 15:01:00,77.6,71.3,29.62,North,0,0.0,0.0,81,0.39,,,0.37,WUHU216HW,2013-07-10 19:01:00,
2013-07-10 15:06:00,76.9,70.9,29.61,North,0,0.0,0.0,82,0.41,,,0.41,WUHU216HW,2013-07-10 19:06:00,
2013-07-10 15:12:00,76.7,71.1,29.61,North,0,0.0,0.0,83,0.41,,,0.41,WUHU216HW,2013-07-10 19:12:00,
2013-07-10 15:17:00,76.9,71.3,29.61,North,0,0.0,0.0,83,0.41,,,0.41,WUHU216HW,2013-07-10 19:17:00,
2013-07-10 15:22:00,77.0,71.5,29.61,North,0,0.0,0.0,83,0.41,,,0.41,WUHU216HW,2013-07-10 19:22:00,
2013-07-10 15:27:00,77.0,71.8,29.61,North,0,0.0,0.0,84,0.41,,,0.41,WUHU216HW,2013-07-10 19:27:00,
2013-07-10 15:32:00,76.7,71.5,29.62,North,0,0.0,0.0,84,0.41,,,0.41,WUHU216HW,2013-07-10 19:32:00,
2013-07-10 15:37:00,76.7,71.8,29.62,North,0,0.0,0.0,85,0.43,,,0.41,WUHU216HW,2013-07-10 19:37:00,
2013-07-10 15:42:00,76.7,71.8,29.62,North,0,0.0,0.0,85,0.43,,,0.41,WUHU216HW,2013-07-10 19:42:00,
2013-07-10 16:00:00,74.5,70.1,29.62,North,0,0.0,0.0,86,0.12,,,0.43,WUHU216HW,2013-07-10 20:00:00,
2013-07-10 16:05:00,74.5,70.1,29.62,North,0,0.0,0.0,86,0.12,,,0.43,WUHU216HW,2013-07-10 20:05:00,
2013-07-10 17:00:00,72.4,68.6,29.61,North,0,0.0,0.0,88,0.49,,,0.49,WUHU216HW,2013-07-10 21:00:00,
2013-07-10 17:05:00,72.2,68.4,29.60,North,0,0.0,0.0,88,0.58,,,1.06,WUHU216HW,2013-07-10 21:05:00,
2013-07-10 17:10:00,72.4,68.6,29.60,North,0,0.0,0.0,88,0.62,,,1.10,WUHU216HW,2013-07-10 21:10:00,
2013-07-10 17:15:00,72.4,68.6,29.60,North,0,0.0,0.0,88,0.61,,,1.11,WUHU216HW,2013-07-10 21:15:00,
2013-07-10 17:20:00,72.4,68.6,29.60,North,0,0.0,0.0,88,0.59,,,1.12,WUHU216HW,2013-07-10 21:20:00,
2013-07-10 17:25:00,72.4,68.6,29.60,North,0,0.0,0.0,88,0.59,,,1.12,WUHU216HW,2013-07-10 21:25:00,
2013-07-10 17:30:00,72.5,68.8,29.60,North,0,0.0,0.0,88,0.59,,,1.12,WUHU216HW,2013-07-10 21:30:00,
2013-07-10 17:35:00,72.7,69.3,29.59,North,0,0.0,0.0,89,0.57,,,1.12,WUHU216HW,2013-07-10 21:35:00,
2013-07-10 17:40:00,73.1,69.7,29.59,North,0,0.0,0.0,89,0.45,,,1.12,WUHU216HW,2013-07-10 21:40:00,
2013-07-10 17:45:00,73.3,70.2,29.59,North,0,0.0,0.0,90,0.37,,,1.12,WUHU216HW,2013-07-10 21:45:00,
2013-07-10 17:51:00,73.4,70.4,29.59,North,0,0.0,0.0,90,0.30,,,1.12,WUHU216HW,2013-07-10 21:51:00,
2013-07-10 17:56:00,73.6,70.6,29.59,North,0,0.0,0.0,90,0.22,,,1.12,WUHU216HW,2013-07-10 21:56:00,
2013-07-10 18:01:00,73.6,70.6,29.58,North,0,0.0,0.0,90,0.06,,,1.12,WUHU216HW,2013-07-10 22:01:00,
2013-07-10 18:06:00,73.6,70.6,29.59,North,0,0.0,0.0,90,0.02,,,1.12,WUHU216HW,2013-07-10 22:06:00,
2013-07-10 18:11:00,73.6,70.6,29.59,North,0,0.0,0.0,90,0.01,,,1.12,WUHU216HW,2013-07-10 22:11:00,
2013-07-10 18:16:00,73.6,70.6,29.59,North,0,0.0,0.0,90,0.00,,,1.12,WUHU216HW,2013-07-10 22:16:00,
2013-07-10 18:21:00,73.4,70.4,29.59,North,0,0.0,0.0,90,0.00,,,1.12,WUHU216HW,2013-07-10 22:21:00,
2013-07-10 18:26:00,73.4,70.4,29.59,North,0,0.0,0.0,90,0.00,,,1.12,WUHU216HW,2013-07-10 22:26:00,
2013-07-10 18:31:00,73.4,70.4,29.59,North,0,0.0,0.0,90,0.00,,,1.12,WUHU216HW,2013-07-10 22:31:00,
2013-07-10 18:36:00,73.3,70.2,29.59,North,0,0.0,0.0,90,0.00,,,1.12,WUHU216HW,2013-07-10 22:36:00,
2013-07-10 18:41:00,73.1,70.0,29.59,North,0,0.0,0.0,90,0.00,,,1.12,WUHU216HW,2013-07-10 22:41:00,
2013-07-10 18:46:00,73.1,69.3,29.59,North,0,0.0,0.0,88,0.00,,,1.12,WUHU216HW,2013-07-10 22:46:00,
2013-07-10 18:51:00,73.1,69.3,29.59,North,0,0.0,0.0,88,0.00,,,1.12,WUHU216HW,2013-07-10 22:51:00,
2013-07-10 18:56:00,73.1,69.3,29.59,North,0,0.0,0.0,88,0.00,,,1.12,WUHU216HW,2013-07-10 22:56:00,
2013-07-10 19:01:00,73.1,69.3,29.59,North,0,0.0,0.0,88,0.00,,,1.12,WUHU216HW,2013-07-10 23:01:00,
2013-07-10 19:06:00,73.1,69.3,29.59,North,0,0.0,0.0,88,0.00,,,1.12,WUHU216HW,2013-07-10 23:06:00,
2013-07-10 19:11:00,73.1,69.7,29.59,North,0,0.0,0.0,89,0.00,,,1.12,WUHU216HW,2013-07-10 23:11:00,
2013-07-10 19:16:00,72.9,69.1,29.59,North,0,0.0,0.0,88,0.00,,,1.12,WUHU216HW,2013-07-10 23:16:00,
2013-07-10 19:22:00,72.9,69.5,29.59,North,0,0.0,0.0,89,0.00,,,1.12,WUHU216HW,2013-07-10 23:22:00,
2013-07-10 19:27:00,72.9,69.5,29.59,North,0,0.0,0.0,89,0.00,,,1.12,WUHU216HW,2013-07-10 23:27:00,
2013-07-10 19:32:00,72.7,69.3,29.59,North,0,0.0,0.0,89,0.00,,,1.12,WUHU216HW,2013-07-10 23:32:00,
2013-07-10 19:37:00,72.9,69.5,29.59,North,0,0.0,0.0,89,0.00,,,1.12,WUHU216HW,2013-07-10 23:37:00,
2013-07-10 19:42:00,72.9,69.5,29.59,North,0,0.0,0.0,89,0.00,,,1.12,WUHU216HW,2013-07-10 23:42:00,
2013-07-10 19:47:00,72.7,69.3,29.59,North,0,0.0,0.0,89,0.00,,,1.12,WUHU216HW,2013-07-10 23:47:00,
2013-07-10 19:52:00,72.7,69.3,29.59,North,0,0.0,0.0,89,0.00,,,1.12,WUHU216HW,2013-07-10 23:52:00,
2013-07-10 19:57:00,72.7,69.3,29.60,North,0,0.0,0.0,89,0.00,,,1.12,WUHU216HW,2013-07-10 23:57:00,
2013-07-10 20:02:00,72.7,69.3,29.59,North,0,0.0,0.0,89,0.00,,,1.12,WUHU216HW,2013-07-11 00:02:00,
2013-07-10 20:07:00,72.7,69.3,29.60,North,0,0.0,0.0,89,0.00,,,1.12,WUHU216HW,2013-07-11 00:07:00,
2013-07-10 20:12:00,72.5,69.1,29.60,North,0,0.0,0.0,89,0.00,,,1.12,WUHU216HW,2013-07-11 00:12:00,
2013-07-10 20:17:00,72.5,69.1,29.60,North,0,0.0,0.0,89,0.00,,,1.12,WUHU216HW,2013-07-11 00:17:00,
2013-07-10 20:22:00,72.4,69.3,29.59,North,0,0.0,0.0,90,0.00,,,1.12,WUHU216HW,2013-07-11 00:22:00,
2013-07-10 20:27:00,72.4,69.3,29.59,North,0,0.0,0.0,90,0.00,,,1.12,WUHU216HW,2013-07-11 00:27:00,
2013-07-10 20:33:00,72.4,69.3,29.59,North,0,0.0,0.0,90,0.00,,,1.12,WUHU216HW,2013-07-11 00:33:00,
2013-07-10 20:37:00,72.4,69.3,29.59,North,0,0.0,0.0,90,0.00,,,1.12,WUHU216HW,2013-07-11 00:37:00,
2013-07-10 21:00:00,72.2,69.1,29.59,North,0,0.0,0.0,90,0.00,,,1.12,WUHU216HW,2013-07-11 01:00:00,
2013-07-10 21:05:00,72.0,68.9,29.59,North,0,0.0,0.0,90,0.00,,,1.12,WUHU216HW,2013-07-11 01:05:00,
2013-07-10 21:10:00,72.0,68.9,29.59,North,0,0.0,0.0,90,0.00,,,1.12,WUHU216HW,2013-07-11 01:10:00,
2013-07-10 21:15:00,72.0,68.9,29.59,North,0,0.0,0.0,90,0.00,,,1.12,WUHU216HW,2013-07-11 01:15:00,
2013-07-10 21:20:00,72.0,68.9,29.60,North,0,0.0,0.0,90,0.00,,,1.12,WUHU216HW,2013-07-11 01:20:00,
2013-07-10 21:25:00,72.0,68.9,29.60,North,0,0.0,0.0,90,0.00,,,1.12,WUHU216HW,2013-07-11 01:25:00,
2013-07-10 21:30:00,72.0,68.9,29.60,North,0,0.0,0.0,90,0.00,,,1.12,WUHU216HW,2013-07-11 01:30:00,
2013-07-10 21:35:00,71.8,68.8,29.60,North,0,0.0,0.0,90,0.00,,,1.12,WUHU216HW,2013-07-11 01:35:00,
2013-07-10 21:40:00,71.8,68.8,29.60,North,0,0.0,0.0,90,0.00,,,1.12,WUHU216HW,2013-07-11 01:40:00,
2013-07-10 21:45:00,71.8,68.8,29.60,North,0,0.0,0.0,90,0.00,,,1.12,WUHU216HW,2013-07-11 01:45:00,
2013-07-10 21:50:00,71.6,68.6,29.60,North,0,0.0,0.0,90,0.00,,,1.12,WUHU216HW,2013-07-11 01:50:00,
2013-07-10 21:56:00,71.6,68.6,29.60,North,0,0.0,0.0,90,0.00,,,1.12,WUHU216HW,2013-07-11 01:56:00,
2013-07-10 22:01:00,71.6,68.6,29.60,North,0,0.0,0.0,90,0.00,,,1.12,WUHU216HW,2013-07-11 02:01:00,
2013-07-10 22:06:00,71.6,68.6,29.60,North,0,0.0,0.0,90,0.00,,,1.12,WUHU216HW,2013-07-11 02:06:00,
2013-07-10 22:11:00,71.5,68.4,29.60,North,0,0.0,0.0,90,0.00,,,1.12,WUHU216HW,2013-07-11 02:11:00,
2013-07-10 22:16:00,71.5,68.4,29.60,North,0,0.0,0.0,90,0.00,,,1.12,WUHU216HW,2013-07-11 02:16:00,
2013-07-10 22:21:00,71.3,68.2,29.60,North,0,0.0,0.0,90,0.00,,,1.12,WUHU216HW,2013-07-11 02:21:00,
2013-07-10 22:26:00,71.3,68.2,29.60,North,0,0.0,0.0,90,0.00,,,1.12,WUHU216HW,2013-07-11 02:26:00,
2013-07-10 22:31:00,71.3,68.5,29.60,North,0,0.0,0.0,91,0.00,,,1.12,WUHU216HW,2013-07-11 02:31:00,
2013-07-10 22:36:00,71.1,68.3,29.60,North,0,0.0,0.0,91,0.00,,,1.12,WUHU216HW,2013-07-11 02:36:00,
2013-07-10 22:41:00,71.1,68.3,29.60,North,0,0.0,0.0,91,0.00,,,1.12,WUHU216HW,2013-07-11 02:41:00,
2013-07-10 23:00:00,70.7,68.0,29.59,North,0,0.0,0.0,91,0.00,,,1.12,WUHU216HW,2013-07-11 03:00:00,
2013-07-10 23:05:00,70.7,68.0,29.59,North,0,0.0,0.0,91,0.00,,,1.12,WUHU216HW,2013-07-11 03:05:00,
2013-07-10 23:10:00,70.6,67.8,29.59,North,0,0.0,0.0,91,0.00,,,1.12,WUHU216HW,2013-07-11 03:10:00,
2013-07-10 23:15:00,70.6,67.8,29.59,North,0,0.0,0.0,91,0.00,,,1.12,WUHU216HW,2013-07-11 03:15:00,
2013-07-10 23:20:00,70.6,67.8,29.59,North,0,0.0,0.0,91,0.00,,,1.12,WUHU216HW,2013-07-11 03:20:00,
2013-07-10 23:25:00,70.6,67.8,29.59,North,0,0.0,0.0,91,0.00,,,1.12,WUHU216HW,2013-07-11 03:25:00,
2013-07-10 23:30:00,70.6,67.8,29.59,North,0,0.0,0.0,91,0.00,,,1.12,WUHU216HW,2013-07-11 03:30:00,
2013-07-10 23:35:00,70.6,67.8,29.59,North,0,0.0,0.0,91,0.00,,,1.12,WUHU216HW,2013-07-11 03:35:00,
2013-07-10 23:40:00,70.6,67.8,29.59,North,0,0.0,0.0,91,0.00,,,1.12,WUHU216HW,2013-07-11 03:40:00,
2013-07-10 23:45:00,70.4,67.6,29.59,North,0,0.0,0.0,91,0.00,,,1.12,WUHU216HW,2013-07-11 03:45:00,
2013-07-10 23:50:00,70.4,67.6,29.58,North,0,0.0,0.0,91,0.00,,,1.12,WUHU216HW,2013-07-11 03:50:00,
2013-07-10 23:55:00,70.2,67.4,29.58,North,0,0.0,0.0,91,0.00,,,1.12,WUHU216HW,2013-07-11 03:55:00,